Wind_Speed
8 7 7 8 7 7 7 8 9 9 9 9 9 9 9 9 9 9 9 9 10 10 10 11 11 11 11 11 11 11 11 10 10 11 11 11 10 10 10 9 10 10 10
9 8 7 7 8 8 9 10 10 11 10 10 10 10 10 10 10 10 10 10 11 11 11 12 12 12 12 12 12 12 12 12 12 12 12 11 11 11 11 10 11 10 11
9 9 8 9 9 9 10 10 10 10 11 11 11 11 11 11 11 11 11 12 12 12 12 13 12 12 12 13 13 13 13 13 13 13 12 12 12 12 12 11 11 11 12
10 10 10 10 10 10 10 10 10 10 10 11 11 11 12 11 12 12 12 13 13 13 13 13 13 13 12 13 14 14 14 14 15 14 14 13 13 14 13 13 12 12 13
10 10 11 10 10 10 10 11 10 10 11 11 11 12 12 12 12 13 13 13 14 14 14 14 14 13 13 13 14 14 14 14 15 14 14 14 14 14 14 14 14 13 14
10 10 10 10 11 12 11 11 11 10 10 11 11 12 12 12 13 13 14 14 14 14 15 15 14 14 14 15 15 15 15 14 15 15 15 14 14 14 15 15 15 14 14
10 10 11 10 11 13 13 11 12 11 11 11 11 11 12 12 13 14 15 15 15 15 16 16 16 16 16 16 16 16 15 15 15 16 16 16 16 16 16 15 16 15 15
11 11 12 12 12 13 13 12 13 12 11 12 12 12 12 13 14 15 15 15 15 16 16 16 16 16 16 16 16 17 16 16 17 16 16 16 17 17 17 16 16 16 16
12 12 12 12 12 12 12 13 12 12 11 11 11 12 13 13 14 15 15 15 16 17 17 17 17 17 17 17 17 17 16 16 16 16 16 16 17 17 18 18 17 17 17
10 10 11 11 12 12 13 12 12 12 12 11 12 13 14 14 15 15 16 16 16 17 17 17 18 18 17 17 17 17 17 17 17 17 17 17 17 17 18 18 18 18 18
10 10 11 11 12 13 14 14 13 13 12 12 13 14 14 15 15 16 16 16 17 17 17 17 18 18 18 18 18 18 17 18 17 17 18 18 18 18 18 18 19 19 19
12 12 12 12 12 13 14 14 13 13 13 13 14 15 16 16 16 17 17 17 18 17 17 17 18 18 19 18 19 19 19 18 18 18 17 18 18 18 18 18 18 19 20
13 12 13 13 13 14 14 13 13 14 14 15 15 16 17 17 17 17 18 18 18 17 17 17 18 18 18 18 19 19 19 19 18 18 18 18 19 19 19 19 19 19 19
13 13 13 14 14 14 15 15 15 15 15 16 16 16 17 17 17 17 17 17 17 17 17 17 17 17 18 19 18 18 18 19 18 17 18 18 19 19 20 20 20 20 21
14 14 14 16 16 16 16 16 16 16 16 16 17 17 17 17 17 18 17 16 17 17 18 18 18 17 18 18 18 18 18 18 19 18 18 19 20 20 20 20 20 20 22
15 15 15 16 17 17 17 16 16 17 17 17 17 17 17 17 18 17 18 17 17 18 18 18 18 18 18 18 19 19 19 19 20 20 19 20 21 21 21 21 21 20 21
15 15 16 17 17 17 17 18 18 18 18 18 17 17 18 18 19 18 17 17 17 18 18 18 18 18 18 18 19 20 20 21 21 21 21 21 22 22 22 22 22 22 23
15 16 17 18 18 18 18 19 19 19 19 19 18 18 18 18 19 19 18 18 17 18 18 18 18 18 18 19 19 19 20 21 21 21 21 22 23 23 23 24 24 24 24
15 16 18 19 19 19 19 19 19 18 18 19 19 19 19 18 18 18 18 17 17 17 17 18 18 18 18 19 19 19 19 20 20 20 21 21 22 23 24 24 24 24 24
16 17 18 18 18 19 19 19 18 18 18 18 18 19 19 19 18 18 18 17 17 17 17 17 17 18 18 19 19 19 19 19 20 20 20 21 21 22 23 23 24 24 24
17 19 19 19 19 19 20 19 18 18 18 19 19 19 19 19 17 17 18 18 17 17 17 17 17 17 17 17 18 18 18 18 19 20 20 20 21 21 22 23 23 24 24
17 19 20 19 20 20 20 19 19 18 18 18 18 19 18 18 18 17 16 16 16 17 17 17 17 17 17 17 17 17 18 19 20 20 21 21 21 21 22 23 23 23 24
19 20 20 19 19 20 19 19 18 18 18 18 18 18 17 18 17 16 15 15 15 15 16 16 17 17 17 17 18 18 18 18 19 20 21 21 21 22 21 21 22 23 24
20 21 21 20 20 20 19 19 18 18 17 17 16 16 16 15 15 15 15 14 14 15 15 16 16 16 16 17 18 19 19 19 19 19 20 21 21 21 21 21 22 23 24
21 20 20 20 20 19 18 18 18 17 17 17 16 15 14 14 15 15 14 14 14 14 15 16 16 17 17 18 18 18 19 19 19 19 19 20 20 20 21 22 22 23 25
20 19 19 20 19 18 18 17 17 16 16 16 16 14 14 14 14 14 14 14 15 15 15 16 16 17 18 18 18 18 18 18 18 18 19 19 20 20 20 21 22 23 23
Wind_Direction
306 306 308 301 299 298 297 298 297 295 289 286 286 286 285 285 280 278 275 273 272 271 269 268 262 257 255 255 255 252 252 253 247 243 237 234 233 231 230 226 222 220 220
307 302 304 301 300 300 296 293 292 290 287 283 282 282 282 281 280 279 279 276 275 272 269 264 261 256 251 252 251 251 252 250 244 244 239 237 240 238 233 231 224 225 223
312 307 310 309 304 304 298 292 287 284 282 280 280 280 281 279 278 278 279 277 274 271 268 265 261 256 253 250 249 249 249 247 247 246 246 244 241 242 238 236 232 229 228
314 306 303 306 304 305 301 293 287 286 285 280 278 278 279 279 278 278 278 277 273 270 268 266 264 259 255 252 250 249 246 244 247 248 248 247 244 244 243 241 237 235 233
312 307 302 302 299 302 298 291 288 285 283 282 282 281 279 278 278 276 276 275 273 270 268 267 266 263 259 257 254 251 250 249 248 247 246 245 246 246 244 243 240 237 235
311 307 304 301 298 297 295 290 287 284 283 284 287 285 284 280 278 277 276 274 273 271 269 266 265 264 261 259 256 252 252 251 250 248 246 245 246 246 244 244 241 240 237
309 308 303 300 299 297 294 290 287 282 282 284 287 287 286 283 280 278 277 273 271 270 270 267 265 264 263 260 257 254 251 250 249 249 247 245 245 245 244 245 244 242 241
303 306 299 298 298 298 297 292 291 283 283 285 285 286 286 284 282 280 277 274 271 271 269 267 265 264 264 260 256 254 251 247 247 249 250 248 246 243 243 245 244 244 242
301 301 299 298 298 298 300 298 298 290 286 287 285 284 285 285 282 279 277 274 273 272 270 268 266 263 261 259 255 253 250 247 247 248 249 249 248 246 245 244 246 244 244
305 299 297 298 297 295 296 295 295 289 285 284 285 286 284 284 283 280 276 275 274 274 271 269 267 263 259 257 255 252 250 249 251 250 249 248 247 248 247 245 246 244 245
308 303 301 299 295 294 293 292 294 292 289 284 283 286 285 286 284 282 279 274 273 272 273 271 267 262 258 254 252 251 249 250 251 250 251 249 248 248 248 247 245 244 244
308 305 304 302 296 294 294 293 294 295 294 287 284 285 286 286 285 284 279 275 271 270 272 272 267 262 258 256 254 252 251 251 249 249 249 248 247 248 249 248 245 245 245
311 308 307 303 299 297 298 295 292 293 294 291 287 285 286 286 284 282 278 275 272 269 271 270 265 263 260 258 255 254 253 251 251 250 248 249 249 249 251 252 251 247 246
310 309 308 305 303 299 298 293 291 291 290 290 287 286 288 289 286 282 278 275 273 271 269 268 265 262 262 261 258 254 254 253 253 254 253 252 252 252 253 255 256 255 251
308 306 305 305 305 302 298 294 292 291 289 290 290 288 290 290 286 281 278 274 272 272 270 268 265 263 264 261 256 253 252 252 254 255 255 255 254 255 257 259 256 256 253
307 304 306 306 303 302 298 295 297 296 292 289 289 290 290 293 290 283 280 275 271 271 269 265 263 260 261 259 255 253 252 254 255 255 255 255 256 256 257 258 257 257 255
309 308 305 306 304 300 297 296 298 294 291 286 288 289 290 290 290 286 282 278 273 271 270 268 266 261 260 258 256 256 253 254 258 258 256 256 256 257 257 258 258 258 257
311 309 307 307 305 302 298 297 297 296 292 291 291 288 289 289 288 288 287 284 279 275 272 269 266 262 260 258 257 257 256 257 260 259 258 258 257 257 258 259 259 260 259
313 309 308 306 304 303 301 300 295 294 293 291 290 287 287 286 285 285 284 283 279 275 271 267 263 261 261 259 257 256 258 259 260 259 257 258 258 258 260 261 261 261 260
310 310 308 305 303 304 303 300 296 292 292 290 291 290 285 283 283 283 281 280 276 274 270 266 264 262 260 259 258 257 259 261 260 259 260 260 260 259 260 261 262 260 259
308 310 308 303 303 303 304 302 298 295 292 291 289 289 285 282 283 284 281 280 275 272 270 266 264 262 260 260 259 259 260 262 262 262 262 261 261 261 261 261 261 260 259
308 309 308 305 303 303 302 301 299 297 294 293 292 291 286 282 281 282 280 278 274 271 269 267 267 264 261 262 262 261 262 263 262 263 263 263 264 264 263 261 260 259 258
308 309 310 308 305 302 300 299 298 296 292 292 291 289 285 284 284 281 280 279 273 271 269 267 266 267 265 265 264 265 265 264 264 263 264 264 265 266 265 264 261 260 259
308 308 309 309 307 302 296 295 295 296 293 291 289 288 288 286 284 283 281 282 276 272 271 267 264 266 268 268 268 267 266 267 265 265 265 265 265 266 268 267 265 263 261
307 309 310 307 305 300 296 294 293 294 292 290 287 286 287 287 286 284 283 281 277 276 273 269 268 268 268 270 271 271 269 270 267 267 268 268 268 269 270 271 271 268 265
308 309 309 308 303 298 297 295 292 291 291 290 288 286 287 288 287 284 284 282 280 279 277 274 272 270 269 271 272 274 274 272 270 270 270 271 271 271 272 271 271 270 269
Height
5891 5890 5889 5889 5888 5888 5888 5888 5887 5887 5886 5886 5885 5885 5884 5884 5883 5882 5882 5882 5881 5881 5880 5880 5880 5880 5880 5880 5880 5880 5880 5880 5880 5880 5880 5881 5882 5882 5882 5882 5883 5884 5885
5890 5889 5888 5888 5887 5887 5886 5886 5885 5885 5885 5884 5883 5883 5882 5882 5881 5881 5880 5880 5879 5879 5878 5878 5878 5878 5878 5878 5878 5878 5878 5879 5878 5879 5879 5879 5880 5880 5881 5881 5882 5882 5883
5888 5888 5887 5887 5886 5885 5885 5884 5884 5883 5883 5882 5881 5881 5880 5880 5879 5879 5878 5878 5877 5877 5876 5876 5876 5876 5876 5876 5876 5876 5876 5877 5877 5877 5877 5878 5878 5879 5879 5880 5880 5881 5882
5887 5887 5886 5885 5885 5884 5883 5883 5882 5881 5880 5880 5879 5879 5878 5877 5877 5876 5876 5875 5874 5874 5874 5874 5873 5873 5873 5873 5873 5874 5874 5874 5874 5874 5875 5875 5876 5877 5877 5878 5879 5879 5880
5886 5885 5885 5883 5883 5882 5881 5880 5880 5879 5878 5878 5877 5876 5876 5875 5874 5874 5873 5873 5872 5871 5871 5871 5871 5871 5871 5871 5871 5871 5871 5871 5872 5872 5873 5874 5874 5874 5875 5876 5877 5877 5878
5884 5883 5882 5882 5881 5880 5879 5878 5877 5876 5876 5875 5874 5874 5873 5872 5872 5871 5870 5870 5869 5868 5868 5868 5868 5868 5868 5868 5868 5868 5869 5869 5869 5870 5870 5871 5872 5872 5873 5874 5874 5875 5876
5883 5881 5881 5880 5879 5878 5876 5875 5874 5873 5873 5872 5871 5871 5870 5870 5869 5868 5867 5866 5866 5865 5865 5865 5865 5865 5865 5865 5865 5865 5865 5866 5866 5867 5867 5868 5869 5870 5871 5871 5872 5873 5874
5880 5879 5878 5877 5876 5875 5874 5873 5872 5871 5870 5869 5869 5868 5867 5866 5865 5865 5864 5863 5862 5862 5862 5861 5861 5861 5861 5861 5861 5861 5862 5863 5863 5864 5864 5865 5866 5867 5867 5868 5869 5870 5871
5877 5877 5875 5874 5873 5872 5871 5870 5869 5868 5867 5866 5866 5865 5864 5863 5862 5861 5860 5860 5859 5858 5858 5858 5857 5857 5857 5858 5858 5858 5859 5859 5860 5860 5861 5862 5863 5863 5864 5865 5866 5867 5868
5875 5874 5873 5872 5871 5870 5868 5867 5866 5865 5864 5863 5862 5861 5860 5859 5858 5857 5856 5855 5855 5855 5854 5854 5853 5853 5853 5853 5854 5854 5855 5856 5856 5857 5858 5859 5859 5860 5861 5862 5862 5863 5864
5873 5872 5871 5869 5868 5867 5866 5864 5863 5862 5861 5860 5859 5858 5857 5855 5854 5853 5852 5851 5851 5850 5850 5850 5849 5849 5849 5849 5850 5850 5851 5852 5853 5853 5854 5855 5856 5856 5857 5858 5859 5860 5861
5871 5869 5868 5867 5865 5864 5863 5861 5860 5859 5857 5856 5855 5854 5852 5851 5850 5848 5848 5847 5847 5846 5846 5845 5845 5845 5845 5845 5846 5846 5847 5848 5849 5849 5850 5851 5852 5853 5853 5854 5855 5856 5857
5868 5866 5865 5864 5862 5861 5860 5858 5856 5855 5854 5852 5851 5850 5848 5847 5845 5844 5843 5842 5842 5842 5841 5841 5840 5840 5841 5841 5842 5842 5843 5843 5845 5845 5846 5847 5848 5848 5849 5850 5851 5851 5853
5865 5863 5862 5860 5859 5857 5856 5854 5853 5851 5850 5848 5846 5845 5843 5842 5840 5839 5839 5838 5837 5837 5837 5836 5836 5836 5837 5837 5838 5838 5839 5839 5840 5841 5842 5842 5843 5844 5845 5845 5846 5847 5848
5861 5860 5858 5857 5855 5854 5852 5851 5849 5847 5845 5844 5842 5840 5839 5838 5836 5835 5834 5833 5833 5832 5832 5832 5832 5832 5832 5832 5833 5834 5834 5835 5836 5836 5837 5838 5838 5839 5840 5841 5842 5842 5843
5858 5856 5855 5853 5852 5850 5848 5847 5845 5843 5841 5840 5838 5836 5834 5833 5832 5830 5829 5829 5828 5827 5827 5827 5827 5827 5828 5828 5829 5829 5830 5830 5831 5832 5832 5833 5833 5834 5835 5836 5836 5837 5838
5855 5854 5852 5850 5848 5846 5844 5843 5841 5839 5837 5835 5833 5831 5829 5828 5827 5826 5824 5823 5823 5822 5822 5822 5822 5822 5823 5823 5824 5824 5825 5825 5825 5826 5827 5828 5828 5829 5829 5830 5831 5832 5832
5851 5850 5848 5846 5844 5842 5840 5838 5836 5834 5832 5830 5828 5826 5825 5823 5822 5820 5819 5818 5817 5817 5816 5817 5817 5817 5818 5818 5819 5819 5819 5820 5820 5821 5821 5822 5822 5823 5823 5824 5825 5826 5826
5848 5846 5844 5842 5840 5838 5836 5834 5832 5829 5827 5825 5823 5821 5820 5818 5816 5815 5813 5812 5811 5811 5811 5811 5812 5812 5813 5813 5813 5814 5814 5814 5815 5815 5815 5816 5816 5817 5818 5818 5819 5819 5820
5844 5842 5840 5838 5835 5833 5831 5829 5826 5824 5822 5820 5818 5817 5815 5813 5811 5810 5808 5807 5806 5806 5806 5806 5806 5807 5807 5808 5808 5809 5809 5809 5809 5810 5810 5810 5811 5811 5812 5812 5812 5812 5813
5840 5838 5835 5833 5830 5828 5826 5824 5822 5819 5817 5816 5813 5812 5810 5808 5806 5805 5803 5802 5801 5801 5801 5801 5801 5802 5802 5803 5803 5803 5804 5804 5804 5804 5804 5805 5805 5805 5806 5806 5806 5806 5806
5836 5833 5830 5828 5825 5823 5821 5819 5817 5815 5813 5811 5808 5807 5805 5803 5802 5800 5799 5797 5797 5796 5796 5796 5797 5797 5797 5798 5798 5798 5799 5799 5799 5799 5799 5799 5799 5799 5800 5799 5799 5800 5800
5830 5828 5825 5823 5820 5818 5816 5814 5812 5810 5808 5806 5804 5802 5801 5799 5797 5795 5794 5793 5793 5792 5792 5792 5792 5792 5792 5793 5793 5793 5793 5794 5793 5794 5793 5793 5793 5793 5793 5793 5793 5793 5793
5826 5823 5820 5818 5815 5812 5810 5809 5807 5805 5803 5801 5799 5798 5796 5794 5793 5791 5790 5789 5789 5788 5788 5788 5788 5788 5788 5788 5788 5788 5788 5788 5788 5788 5788 5788 5787 5787 5787 5786 5786 5786 5786
5821 5818 5815 5812 5810 5808 5806 5804 5802 5800 5798 5796 5795 5794 5792 5791 5789 5788 5787 5786 5785 5784 5783 5783 5783 5783 5783 5783 5783 5782 5782 5782 5782 5782 5782 5782 5781 5780 5780 5779 5779 5779 5779
5815 5813 5810 5807 5804 5803 5801 5799 5797 5795 5794 5792 5790 5789 5788 5787 5785 5784 5783 5782 5781 5780 5779 5779 5778 5778 5778 5778 5777 5777 5776 5776 5776 5776 5776 5775 5775 5774 5773 5773 5773 5772 5772